Flag for United Arab Emirates Weather past 2 weeks in Abu Dhabi, Abu Dhabi, United Arab Emirates

Now
72 °F

Scattered clouds.


Feels Like: 76 °F
Forecast: 62 / 79 °F
Wind: 21 mph from Northwest

Location: Abu Dhabi Bateen Airport

Current Time: Feb 27, 2015 at 5:11:23 PM

Latest Report: Feb 27, 2015 at 4:00 PM


Visibility: N/A

Pressure: 29.89 "Hg

Humidity: 57%

Dew point: 55 °F

Location of Abu DhabiLocation

Historic Weather in Abu Dhabi — Graph

°F

Abu Dhabi temperature yesterday

Maximum temperature yesterday: 77 °F (at 3:00 PM)
Minimum temperature yesterday: 57 °F (at 7:00 AM)
Average temperature yesterday: 68 °F

Past Weeks' High & Low Weather Summary

 TemperatureHumidityPressure
High99 °F (Feb 19, 4:00 PM)100% (Feb 17, 5:00 AM)30.12 "Hg (Feb 17, 5:00 AM)
Low57 °F (Feb 24, 1:00 AM)7% (Feb 20, 7:00 PM)29.62 "Hg (Feb 20, 3:00 PM)
Average74 °F48%29.92 "Hg
* Reported Feb 12 4:00 PM — Feb 27 4:00 PM, Abu Dhabi, Weather by CustomWeather, © 2015

Note: Actual official high and low records may vary slightly from our data, if they occured in-between our weather recording intervals... More about our weather records

Advertising

Abu Dhabi weather history for previous 24 hours

 ConditionsComfort  
Time TempWeatherWind HumidityBarometerVisibility
4:00 PM
Fri, Feb 27
72 °FScattered clouds.21 mph57%29.89 "HgN/A
3:00 PM72 °FPartly sunny.23 mph57%29.86 "HgN/A
2:00 PM73 °FPartly sunny.23 mph50%29.89 "HgN/A
1:00 PM73 °FScattered clouds.21 mph50%29.92 "HgN/A
12:00 PM73 °FScattered clouds.23 mph50%29.95 "HgN/A
11:00 AM72 °FScattered clouds.22 mph53%29.89 "HgN/A
10:00 AM72 °FPassing clouds.22 mph47%29.95 "HgN/A
9:00 AM70 °FPassing clouds.18 mph50%29.95 "HgN/A
8:00 AM70 °FPassing clouds.18 mph50%29.92 "HgN/A
7:00 AM68 °FPassing clouds.12 mph64%29.92 "HgN/A
6:00 AM66 °FPassing clouds.10 mph68%29.89 "HgN/A
5:00 AM66 °FPassing clouds.12 mph68%29.89 "HgN/A
4:00 AM68 °FClear.13 mph69%29.89 "Hg10 mi
3:00 AM68 °FClear.12 mph73%29.89 "Hg10 mi
2:00 AM68 °FClear.6 mph64%29.89 "Hg10 mi
1:00 AM68 °FClear.9 mph64%29.92 "Hg10 mi
12:00 AM68 °FClear.7 mph69%29.95 "Hg10 mi
11:00 PM
Thu, Feb 26
68 °FClear.9 mph64%29.95 "Hg10 mi
10:00 PM70 °FClear.9 mph60%29.95 "Hg10 mi
9:00 PM70 °FClear.8 mph60%29.95 "Hg10 mi
8:00 PM70 °FClear.12 mph60%29.95 "Hg10 mi
7:00 PM72 °FClear.9 mph53%29.95 "Hg10 mi
6:00 PM72 °FPassing clouds.10 mph50%29.92 "HgN/A
5:00 PM73 °FSunny.10 mph41%29.92 "Hg10 mi
Weather by CustomWeather, © 2015

See weather overviewHow to use our weather pages